Presure
99 127 184 194 187 182 181 180 182 156 150 121 93 91 115 176 182 169 177 173 166 158 124 114 167 203 178 197 192 191 187 177 174 201 267 155 239 218 262 216 185 243 211 265 266
113 127 188 97 172 100 128 97 168 159 127 175 158 182 175 178 168 176 164 128 124 114 155 187 152 192 199 198 186 179 187 179 231 219 196 144 251 233 217 192 189 201 200 197 230
105 117 170 164 136 107 108 172 178 92 178 184 177 173 178 166 170 125 126 120 121 175 163 128 174 209 183 267 213 242 225 237 234 157 198 136 132 198 132 212 193 203 197 205 193
105 145 186 115 179 164 145 140 190 182 180 177 172 173 173 131 125 122 112 118 143 151 145 123 176 177 252 184 245 203 223 218 200 212 206 167 193 202 183 194 219 146 139 192 172
161 169 157 158 166 163 149 131 140 89 166 138 167 175 173 123 123 119 117 127 194 168 111 174 175 226 238 198 212 204 237 211 195 188 185 163 174 166 172 176 165 165 167 205 152
109 112 153 156 164 154 129 90 151 179 156 133 180 159 167 121 121 121 168 177 170 117 166 210 173 157 220 215 216 217 207 211 185 182 102 162 176 195 153 162 178 175 147 158 185
144 103 119 163 175 172 110 186 184 174 182 136 176 164 127 123 133 170 155 179 119 155 175 185 209 206 217 213 200 199 213 190 211 112 174 215 188 212 171 160 157 176 183 175 174
181 98 125 119 111 157 183 180 180 184 185 172 177 134 171 138 173 153 166 123 124 186 188 173 189 212 207 187 190 202 208 198 199 205 207 165 189 172 162 167 186 186 160 190 201
180 173 116 146 172 171 179 180 176 172 173 181 148 162 148 171 145 122 113 142 139 151 154 177 203 191 188 205 179 175 187 190 190 204 188 177 188 176 186 175 191 182 179 190 178
152 133 174 170 161 175 180 154 184 177 171 163 154 167 150 167 119 126 146 129 167 158 150 148 157 173 172 185 199 203 189 190 189 195 191 191 185 180 176 165 183 185 170 186 177
137 162 133 166 187 169 160 189 178 179 179 176 165 154 142 150 126 153 135 160 159 151 162 173 165 157 187 178 163 166 196 176 191 126 176 183 163 175 171 173 180 156 182 185 176
164 171 166 161 164 155 182 146 180 164 184 159 168 147 118 125 131 140 159 164 157 151 145 169 162 165 168 173 176 162 158 188 193 193 177 161 174 185 170 167 158 170 176 179 176
168 168 172 161 168 142 160 169 180 186 175 163 151 138 127 133 151 140 162 156 160 163 153 136 135 164 145 155 159 170 170 178 185 186 190 186 164 175 172 162 156 161 166 180 175
166 158 169 166 112 160 165 185 171 181 168 172 145 156 169 169 155 158 154 160 152 151 145 152 137 154 153 153 155 160 163 160 169 179 185 180 182 176 175 166 151 179 177 164 181
169 135 128 156 179 177 180 186 180 171 171 154 146 155 169 167 159 159 153 164 155 156 143 165 136 137 156 149 158 149 144 152 168 172 165 182 176 168 171 174 172 179 181 174 162
179 164 172 168 163 175 162 180 175 171 173 172 139 135 145 167 160 155 162 158 158 154 144 121 149 150 155 154 152 150 153 157 153 172 167 177 175 158 166 164 175 176 173 186 183
150 154 139 172 147 164 160 173 176 164 152 146 164 167 148 160 163 165 160 156 164 161 149 136 154 154 145 155 151 152 156 156 155 164 178 179 172 169 148 155 170 165 176 181 175
131 114 159 151 152 150 169 171 172 152 168 144 168 166 158 158 156 158 163 159 159 143 157 148 154 155 147 149 153 155 147 153 149 162 176 177 179 174 166 142 159 150 161 193 171
135 165 131 159 139 154 150 178 168 149 165 163 150 162 164 157 156 154 162 161 154 159 150 147 140 152 151 137 153 150 149 150 147 160 169 164 180 173 162 166 166 169 170 170 170
168 157 173 171 161 151 153 165 163 158 174 168 162 159 158 162 157 159 152 154 142 161 172 147 137 154 150 139 152 145 149 152 151 153 168 163 177 167 170 165 165 177 180 172 177
169 153 156 157 165 155 151 158 156 151 185 167 168 150 152 157 160 155 155 144 158 147 151 152 143 112 145 138 151 147 168 149 151 147 158 147 166 176 159 172 164 151 165 168 191
171 168 157 163 151 94 141 156 160 158 165 160 152 160 161 154 153 159 165 162 142 163 163 141 135 120 154 141 151 172 146 162 163 156 167 174 166 162 172 141 157 173 170 170 181
159 151 153 163 139 115 160 160 156 164 175 180 160 161 166 159 165 163 154 144 135 165 145 136 141 154 150 155 135 142 146 147 154 158 152 179 179 169 159 138 160 159 173 169 220
163 158 154 162 123 156 161 161 159 153 164 160 152 172 176 151 176 149 128 151 125 155 141 154 141 157 157 152 143 136 146 149 156 152 163 169 184 164 174 139 164 155 178 170 207
171 162 157 159 158 155 162 163 156 149 154 148 154 152 158 161 162 156 147 127 146 139 151 132 146 157 145 147 166 135 149 148 153 150 160 156 173 177 176 156 166 189 175 182 190
160 168 160 163 165 160 170 167 162 156 169 175 174 143 149 157 157 157 147 158 148 170 135 133 138 147 162 167 142 130 143 143 139 135 163 144 178 183 173 172 180 160 169 171 198
160 160 159 148 159 153 154 166 159 154 176 169 158 163 158 161 160 162 162 133 165 142 124 127 142 153 140 143 145 118 152 149 154 133 161 152 175 188 156 168 173 184 180 180 201
Wind_Speed
26 23 16 19 16 13 13 13 14 15 18 22 23 26 25 16 16 22 25 26 29 31 34 40 37 36 35 34 33 33 32 33 35 37 10 40 25 36 19 36 48 31 41 30 33
23 24 20 20 11 25 18 22 14 15 16 11 14 10 14 14 20 22 26 29 33 38 37 37 37 40 40 37 37 39 39 37 19 25 30 39 10 11 16 39 39 13 17 30 29
27 28 16 14 17 26 25 13 11 21 11 9 11 14 13 19 20 28 31 35 37 34 40 41 43 37 44 13 24 7 15 24 6 34 32 40 43 11 51 8 31 17 20 25 27
30 24 19 26 13 12 14 15 10 9 9 11 13 13 14 23 28 31 37 38 37 39 43 48 46 48 20 12 20 18 8 7 26 9 3 28 33 9 31 18 33 43 48 26 46
23 19 19 17 14 13 14 19 18 27 12 19 13 13 14 29 31 35 38 41 27 37 47 42 40 30 26 16 12 18 27 22 15 22 33 43 45 49 48 40 51 58 58 43 64
33 27 21 19 16 15 18 25 15 10 15 21 10 17 15 31 34 38 26 28 32 47 37 30 38 43 32 32 29 23 27 26 30 28 46 49 29 22 56 56 46 52 61 61 47
26 29 28 18 16 11 21 7 9 10 10 24 9 13 31 33 35 21 31 27 45 37 34 33 37 34 39 37 30 26 32 24 35 34 38 36 43 44 52 53 64 48 52 56 47
29 25 27 28 31 14 7 9 10 10 8 9 8 30 10 31 14 28 23 42 44 30 35 35 40 43 39 36 38 40 37 35 37 40 41 36 49 39 48 53 42 40 55 58 72
26 24 34 21 15 11 9 10 12 11 8 5 21 13 24 11 23 38 42 38 41 37 34 38 44 45 49 42 41 40 41 41 42 46 42 40 45 40 49 46 63 52 57 77 57
30 31 21 19 18 11 10 16 12 11 10 12 18 10 23 11 37 39 29 47 31 32 35 39 42 47 47 55 53 49 49 48 46 47 46 47 48 53 56 52 67 72 59 81 73
29 27 26 20 12 14 16 12 12 12 11 7 12 21 29 26 39 25 41 28 30 33 38 42 44 45 59 56 49 56 50 52 50 55 50 53 58 61 63 67 72 49 84 86 82
31 27 25 22 19 21 13 19 13 14 11 16 9 25 36 39 37 37 27 27 32 35 38 40 43 48 55 60 65 56 50 56 57 55 54 61 66 66 67 72 69 77 83 94 93
31 29 26 22 21 21 16 15 14 12 12 15 22 31 37 39 29 41 26 32 34 37 40 43 49 48 52 51 58 69 68 69 65 66 62 61 69 70 72 75 74 76 84 97 92
33 29 26 24 26 23 18 15 15 13 14 12 26 22 14 14 25 27 30 31 37 40 44 44 49 49 52 56 57 66 75 65 73 70 69 72 72 78 80 80 74 95 96 91 108
36 35 28 26 19 17 15 17 15 15 14 19 26 23 17 18 23 26 32 31 35 37 43 45 49 54 53 52 62 55 57 67 81 80 79 78 77 77 81 89 93 98 103 104 90
37 32 29 26 23 18 20 17 16 15 15 16 34 37 34 20 25 31 31 31 35 39 45 51 49 49 54 56 60 63 70 78 75 86 84 80 82 77 87 93 98 101 106 114 117
37 34 35 26 31 22 23 20 19 20 23 28 21 20 34 27 26 29 33 34 36 35 41 51 49 52 55 62 61 69 76 78 81 87 83 83 87 91 85 85 102 100 109 118 116
43 36 35 32 30 31 21 24 22 25 23 32 21 23 28 29 32 34 35 37 37 40 39 47 49 53 55 61 65 73 67 79 78 91 89 85 82 86 91 84 96 91 108 120 123
46 35 41 33 36 30 31 25 23 28 26 26 30 26 25 30 32 36 36 37 40 43 41 45 53 54 56 61 67 69 74 78 79 87 88 89 83 87 94 99 107 111 120 118 123
41 39 34 33 32 33 31 27 28 30 27 26 28 30 30 30 33 34 39 39 42 41 48 45 53 52 56 62 67 68 75 80 81 85 90 94 90 95 101 104 109 117 123 126 138
43 43 40 36 35 33 34 30 30 32 30 28 27 34 36 35 35 37 38 41 44 42 44 44 52 60 58 62 68 71 79 79 84 88 93 89 95 96 98 106 113 106 118 126 132
44 42 40 40 37 28 32 33 32 32 29 29 34 33 33 38 37 39 40 42 46 44 44 50 57 63 60 62 70 78 76 85 86 92 93 96 94 98 105 85 107 118 125 127 143
48 47 44 42 36 28 35 34 34 31 29 32 33 35 36 37 40 38 40 41 49 46 41 53 56 58 61 67 68 73 78 81 85 92 97 95 98 100 102 82 114 115 128 128 126
51 49 46 43 32 37 37 37 35 34 33 32 36 34 36 37 39 40 46 40 55 44 47 48 55 60 64 61 63 68 77 82 89 92 99 104 97 102 108 90 117 117 129 131 132
50 50 46 43 42 40 39 38 36 37 35 35 37 38 38 39 38 38 39 50 49 51 54 60 56 60 60 66 68 69 77 83 91 93 99 103 101 101 106 108 117 125 128 136 146
55 50 47 43 43 40 40 40 37 38 36 35 36 42 43 42 39 39 40 42 50 53 57 63 62 61 69 67 69 71 77 81 86 86 100 96 103 98 105 114 122 118 128 129 136
57 52 49 49 44 42 39 40 38 37 34 35 37 38 44 44 43 46 45 51 49 55 62 64 59 63 66 70 72 70 79 84 91 87 101 102 107 99 106 114 120 126 136 136 140
Wind_Direction
236 230 189 166 184 213 226 242 256 263 267 275 294 298 299 291 304 300 303 304 304 307 301 301 313 323 312 319 318 311 308 304 301 297 311 293 288 291 315 289 282 299 286 309 302
232 231 178 250 221 257 258 268 252 266 289 270 288 282 286 300 303 303 306 301 300 300 313 324 307 323 321 322 319 316 316 310 340 302 295 293 344 321 316 287 285 308 296 294 344
233 236 205 210 231 258 263 252 247 304 257 255 274 285 294 302 305 301 301 302 304 318 318 302 327 333 330 46 304 35 292 32 45 303 291 296 300 263 294 323 260 301 279 309 279
235 224 188 249 218 226 233 247 211 251 255 263 277 292 301 294 297 300 301 302 312 321 317 310 331 330 34 320 37 299 343 295 291 251 335 302 310 229 282 270 348 292 296 265 273
212 203 217 219 226 229 244 255 265 299 273 281 287 295 304 294 298 300 301 306 343 332 313 334 338 32 38 339 273 279 19 338 284 290 297 304 299 302 292 286 312 295 292 318 296
237 241 223 225 226 238 258 298 266 247 284 283 278 288 305 295 298 300 331 347 338 312 335 13 336 329 29 32 32 3 21 1 323 277 306 310 286 282 312 300 274 286 307 297 273
221 243 236 227 227 237 285 236 232 254 248 273 288 298 292 296 303 337 323 353 312 329 337 345 18 21 25 27 21 10 13 329 10 280 289 351 265 345 286 289 298 270 315 279 294
207 250 226 234 254 246 227 233 233 240 227 273 286 289 319 301 352 319 340 313 321 1 6 349 6 21 16 4 11 14 14 3 358 1 357 287 347 284 278 324 325 327 278 343 335
202 209 235 233 226 227 226 223 239 246 256 247 284 296 299 338 317 308 315 320 321 326 333 5 22 16 14 14 4 356 3 2 360 3 356 341 351 337 344 324 345 337 317 342 322
218 227 212 220 231 227 227 254 216 235 258 277 287 298 302 333 303 307 320 315 333 323 326 327 345 10 5 14 11 7 1 3 0 360 356 352 351 349 345 330 343 342 340 343 342
220 225 234 224 217 229 247 204 223 228 236 234 281 293 297 307 304 317 315 323 324 324 342 3 356 351 13 8 357 359 5 358 359 314 351 352 340 349 343 342 342 322 342 341 343
220 217 226 228 236 243 220 266 216 257 224 269 263 292 295 300 305 312 319 326 321 321 320 360 356 2 8 9 8 359 337 0 359 355 354 344 345 352 342 341 336 339 340 340 340
212 218 222 230 237 254 245 242 222 219 239 268 284 291 296 301 308 315 320 323 333 345 329 328 330 1 342 357 2 6 2 2 359 357 356 356 343 347 343 339 337 339 339 338 337
214 227 227 231 260 247 251 219 245 223 255 250 285 293 291 296 304 315 321 322 320 321 321 338 328 351 351 354 355 358 2 353 358 355 353 354 353 346 347 341 337 340 340 342 338
215 229 248 236 236 241 239 219 223 246 250 279 284 288 294 295 306 315 318 325 323 333 322 357 334 332 353 346 357 347 340 353 359 354 350 353 353 345 345 347 342 341 336 340 343
209 223 223 231 238 243 250 234 239 250 248 258 285 289 298 301 309 316 318 322 328 331 324 324 338 341 350 351 351 351 353 351 352 356 352 351 349 340 346 344 341 341 341 337 340
225 229 233 226 247 247 255 254 246 265 277 280 281 285 299 305 313 313 316 321 334 334 328 328 341 344 338 350 348 351 352 350 350 351 352 349 350 347 342 341 342 343 341 340 344
231 241 232 237 242 251 248 252 259 268 269 280 279 285 299 305 312 318 316 323 331 324 333 334 342 343 341 345 348 350 346 350 348 352 354 352 343 342 342 341 339 346 346 337 347
230 223 239 235 249 246 256 239 264 270 270 278 292 289 293 302 309 314 314 319 325 324 326 331 332 339 342 333 347 348 348 348 345 350 351 347 346 344 342 342 341 343 344 346 348
219 227 226 232 236 248 252 253 259 267 262 268 283 289 296 295 306 308 315 320 324 324 335 327 330 339 340 336 345 345 346 346 344 346 348 347 347 344 344 343 342 341 340 346 342
220 229 233 236 237 244 254 256 262 269 254 270 273 297 300 299 302 308 312 316 318 326 322 326 329 329 336 336 342 345 344 345 344 342 344 340 348 344 340 342 342 347 347 348 343
219 223 230 236 240 278 257 255 258 264 269 275 288 285 287 298 303 304 302 309 317 317 323 325 328 325 336 335 340 342 343 344 344 344 344 348 349 345 345 347 342 342 346 347 346
222 229 233 233 250 269 248 253 260 266 267 262 279 281 283 293 294 300 310 316 319 321 319 325 331 335 334 339 337 341 342 343 344 345 343 347 346 346 341 350 343 345 343 348 345
222 223 230 232 258 242 248 252 257 264 267 274 282 280 284 295 291 301 309 310 318 321 320 329 326 334 334 336 334 339 341 342 344 345 346 348 345 345 342 350 342 345 342 348 345
219 223 227 230 236 241 247 251 254 262 267 274 280 284 287 290 294 301 305 310 313 316 319 325 328 331 328 332 334 340 340 342 342 343 344 344 349 341 343 340 341 339 343 347 346
222 221 226 228 234 239 244 249 253 259 264 268 274 282 286 289 296 300 304 313 313 313 314 321 325 327 329 332 336 336 342 342 336 337 344 338 346 340 345 341 341 343 345 350 348
222 221 223 233 232 238 242 247 253 260 267 270 274 278 281 288 296 299 305 306 315 314 318 324 322 326 330 331 334 331 338 339 341 337 344 341 347 343 337 341 341 343 346 349 350